Theta_e
301 303 305 307 307 307 305 304 304 304 304 303 301 302 305 306 298 295 305 307 306 307 308 310 315 312 312 311 319 325 326 327 329 328 329 329 329 330 331 330 335 338 340 343 348 351 352 353 353 355 356 356 356 356 356 357 359 361 362 362 361 360 359 357 356 356 356 356 355 355 355 353 352 352 352 351 352 353 354 354 355 354 356 358 358 359 361
300 302 304 306 305 306 307 307 305 305 304 303 303 303 306 306 305 308 313 308 310 309 309 310 311 314 313 318 323 323 323 325 327 328 328 329 330 336 332 330 334 337 340 343 348 351 352 352 353 355 356 356 356 356 357 357 358 360 362 361 360 360 359 358 357 357 356 355 355 355 355 354 353 353 353 352 351 352 354 354 353 353 353 356 358 358 359
298 303 304 306 306 305 304 307 307 307 305 304 304 304 304 308 306 306 313 313 309 312 311 313 318 316 316 317 317 317 317 321 325 325 326 331 336 342 340 338 340 341 344 347 349 351 352 352 352 354 356 357 357 358 358 358 358 359 361 360 360 360 359 360 359 358 356 355 355 354 355 355 355 354 353 353 352 351 353 355 354 354 353 352 355 358 358
294 301 305 304 305 305 304 306 305 305 304 302 303 302 304 304 304 305 307 305 307 309 313 316 315 315 316 317 317 315 315 318 318 320 329 330 333 339 344 348 352 353 354 354 353 353 353 353 352 353 355 357 357 357 358 359 359 360 360 360 360 359 360 361 361 359 357 356 355 354 354 355 355 354 354 353 352 351 352 354 356 356 355 353 353 357 359
292 298 301 303 304 301 299 301 304 308 307 306 306 306 307 306 308 304 302 304 310 312 316 314 313 315 315 315 317 318 319 320 320 319 325 327 330 335 339 344 348 351 354 356 356 355 355 354 353 354 355 356 356 357 358 360 360 359 359 360 360 360 360 361 361 360 359 357 356 355 354 355 355 355 353 353 352 352 351 353 356 356 356 355 354 355 359
290 295 297 304 298 291 293 309 309 313 307 306 304 303 305 306 308 306 308 311 315 314 312 312 312 314 313 314 317 319 319 317 316 317 321 329 332 337 340 342 343 344 347 352 355 356 356 356 357 356 356 355 357 358 359 360 359 359 358 359 360 360 360 360 361 361 360 358 357 357 356 355 355 355 354 352 353 353 353 353 353 356 357 357 356 354 356
289 294 297 297 291 293 307 309 311 313 310 308 308 307 308 307 308 310 310 313 314 317 317 318 315 316 317 320 320 319 323 320 318 318 320 318 329 337 338 338 345 342 341 347 351 352 353 355 354 354 355 356 357 356 358 358 358 358 358 357 359 360 360 361 361 362 361 359 358 358 358 357 356 356 355 354 353 353 353 352 352 353 356 357 357 357 356
293 295 296 289 293 304 308 308 310 312 311 310 308 306 309 310 311 313 310 312 312 315 315 316 316 317 317 318 318 317 324 337 338 339 339 327 320 325 342 351 350 349 352 353 356 356 357 356 353 353 352 355 357 356 358 358 357 357 357 356 357 361 360 361 362 362 362 360 360 359 359 359 357 356 356 356 354 353 353 353 353 353 354 357 358 358 358
288 290 293 294 303 301 304 305 307 306 306 305 304 300 307 316 318 314 314 314 314 315 315 317 317 316 316 313 313 320 335 340 341 342 345 348 349 350 352 355 354 352 351 351 354 354 350 351 352 353 352 353 356 356 356 357 357 356 356 355 355 361 361 361 362 363 363 362 361 361 361 360 358 357 357 357 356 355 352 352 352 353 353 354 357 359 359
292 288 289 293 294 291 299 308 309 311 313 312 311 308 308 317 320 323 315 313 313 313 314 314 315 316 313 311 320 337 343 345 344 345 347 347 346 346 346 346 350 353 354 354 356 356 355 355 354 354 357 354 352 354 354 354 356 356 355 354 355 357 362 362 363 364 364 363 362 362 361 361 360 359 359 359 359 357 354 352 352 353 354 355 356 357 358
289 289 287 289 290 296 301 306 310 312 312 312 312 308 305 314 317 323 323 321 321 321 317 314 314 313 314 316 321 334 343 345 346 345 345 345 344 345 348 348 347 350 352 355 355 352 347 346 348 350 356 357 355 353 355 354 354 355 355 354 354 354 359 363 364 365 365 365 364 363 362 362 362 361 360 360 361 361 358 355 353 354 355 355 356 357 358
290 290 287 288 297 298 303 308 311 312 314 313 308 298 301 313 316 323 323 321 320 321 322 323 321 318 316 318 324 331 338 344 345 344 343 343 343 342 344 352 351 350 352 353 354 352 356 356 358 355 352 354 358 357 354 354 352 352 354 355 355 355 358 363 364 366 366 366 365 364 364 364 364 364 363 363 363 362 361 359 356 355 356 357 356 357 358
290 291 289 292 296 304 305 309 312 314 316 311 301 295 308 314 319 323 323 321 321 321 320 321 318 321 324 325 329 334 338 341 343 345 345 344 344 343 345 350 356 349 349 353 354 355 356 358 357 357 360 358 352 356 357 353 351 352 353 355 357 356 359 363 364 365 366 367 366 366 366 366 366 365 365 364 364 364 363 362 359 357 357 358 358 359 359
287 289 288 290 298 304 307 310 312 315 311 300 299 313 316 317 319 322 322 321 322 321 319 319 320 323 325 328 330 332 334 338 342 343 343 343 343 344 345 350 351 346 349 349 352 353 355 357 359 360 358 354 357 354 355 356 354 353 355 357 358 357 359 363 363 364 365 367 368 367 367 367 366 365 365 366 365 364 364 362 360 358 357 356 358 359 360
291 291 288 287 284 302 308 309 309 312 305 304 313 315 317 319 319 320 320 321 321 322 321 324 325 326 326 326 327 329 331 333 336 341 341 341 340 341 341 341 346 347 345 351 354 354 355 355 357 360 359 356 357 358 357 358 359 358 359 359 359 358 359 362 363 363 364 366 367 368 367 367 366 365 365 365 364 364 363 362 360 358 357 356 356 355 357
287 288 287 288 305 306 308 306 301 307 311 316 319 315 313 317 317 317 318 318 319 322 323 324 325 326 326 327 328 329 331 332 336 338 340 340 340 342 344 344 344 349 346 350 349 352 357 356 357 359 359 356 356 357 358 362 363 362 365 361 360 358 357 360 363 363 364 366 367 367 366 366 365 364 364 364 363 363 363 362 360 359 358 357 356 354 354
292 292 296 304 303 307 307 307 307 308 311 314 315 315 314 312 313 317 316 315 318 320 323 324 324 324 327 327 330 330 331 334 335 337 338 339 340 341 342 347 351 350 348 348 348 351 352 353 356 359 361 357 356 355 359 364 363 363 367 363 360 358 357 359 362 364 365 366 366 366 366 366 364 364 363 364 362 362 362 362 361 360 359 358 357 355 355
301 300 301 307 309 307 305 308 309 308 309 314 315 313 311 312 314 315 314 315 317 319 322 322 324 325 326 328 329 331 332 333 334 336 338 340 341 343 345 347 348 348 349 350 351 351 352 353 355 362 358 356 356 359 364 365 364 362 367 364 360 358 358 360 362 365 365 365 365 365 365 366 366 365 364 363 362 362 362 362 361 360 359 359 358 357 356
293 289 303 305 307 306 306 307 309 309 310 311 314 312 312 312 314 314 315 315 316 317 320 320 321 324 328 327 327 329 330 331 333 336 338 340 341 344 344 348 352 348 348 349 349 350 350 351 352 355 356 357 356 358 361 363 363 362 363 363 361 360 359 360 362 363 363 363 364 364 364 365 366 366 365 364 362 360 362 362 361 360 360 358 357 357 357
292 293 299 302 304 305 307 307 306 307 309 313 312 312 313 316 315 315 315 316 315 316 317 318 319 322 326 327 326 327 329 330 332 335 337 339 340 344 346 348 349 348 347 347 346 346 347 349 351 354 357 357 359 359 361 363 365 365 363 362 361 360 360 361 360 361 360 372 366 363 363 364 365 365 364 362 361 361 361 361 360 359 360 358 357 357 357
296 298 300 303 304 303 305 308 309 309 310 312 310 311 313 313 313 313 314 315 315 316 315 316 318 320 323 326 327 328 329 330 332 336 337 339 340 342 344 345 350 345 345 346 345 346 345 346 348 350 353 356 359 361 364 365 366 361 360 361 362 361 361 360 359 360 360 361 360 352 338 328 319 314 319 352 354 338 331 332 358 361 358 353 347 346 348
291 291 295 302 297 297 303 306 305 306 308 310 309 311 310 312 313 313 311 313 317 317 316 315 315 319 321 324 326 327 329 331 334 336 337 338 340 343 345 346 345 344 347 345 343 343 344 346 347 348 349 351 356 359 362 365 365 359 358 359 359 360 361 360 360 360 360 358 350 343 337 332 328 323 314 302 309 329 325 318 314 325 330 343 339 332 328
290 298 301 302 303 303 306 306 308 310 312 309 309 309 309 310 312 316 314 314 315 315 315 317 316 317 320 321 325 327 329 331 334 337 337 338 339 342 345 344 344 342 342 344 343 343 343 345 345 347 347 350 351 352 356 359 361 360 358 357 357 359 360 361 357 360 360 355 344 340 336 333 330 326 322 318 303 300 308 312 310 306 306 308 312 319 328
299 301 301 302 301 299 302 305 307 309 310 309 309 310 311 312 311 313 314 315 314 313 314 316 319 319 319 321 325 327 329 331 332 333 336 338 340 343 344 344 342 340 340 342 342 341 342 344 346 345 347 349 351 351 354 356 357 355 352 350 349 350 353 353 355 358 357 348 342 337 334 333 330 326 324 322 321 308 301 305 307 305 305 305 306 309 313
297 302 302 303 303 303 305 305 306 308 310 311 308 308 309 310 313 313 311 312 315 315 314 316 320 323 323 324 325 326 328 330 333 336 340 340 341 342 343 344 342 341 341 342 342 343 343 344 344 345 346 348 348 348 349 353 353 349 348 347 346 345 346 347 348 351 352 349 342 338 335 333 330 327 325 324 323 322 318 303 300 301 303 304 304 304 304
301 301 302 302 302 303 305 305 305 305 306 309 310 310 313 315 313 312 311 311 314 317 316 316 318 323 327 327 327 328 328 329 334 336 334 335 337 340 341 341 342 343 342 343 344 344 345 343 342 344 346 345 344 345 347 349 348 347 346 346 346 345 344 343 343 343 344 346 343 339 337 334 331 329 328 326 325 325 325 325 324 313 303 300 300 301 300
301 302 301 299 299 301 303 301 301 306 307 309 308 307 308 310 313 313 312 313 315 316 316 317 317 322 326 328 329 330 330 331 332 331 331 332 334 338 341 342 342 342 342 342 341 343 345 344 344 342 343 346 347 347 346 346 345 345 346 347 348 352 353 350 343 343 343 344 343 342 340 336 333 332 331 330 330 330 330 330 330 329 328 327 312 308 318
300 300 300 296 296 299 302 305 307 308 307 307 307 307 308 309 310 310 310 311 312 314 317 319 321 322 323 325 326 327 329 329 330 332 332 333 337 340 341 341 341 342 341 341 340 341 340 338 339 338 338 345 347 344 344 342 342 342 342 342 342 342 342 344 342 343 343 342 340 340 340 338 337 336 335 335 336 337 335 336 333 331 329 327 323 318 311
299 300 301 301 301 303 304 305 306 307 308 309 312 310 309 308 308 308 309 311 312 313 314 317 320 322 323 323 325 326 326 328 329 330 332 336 339 341 340 341 341 342 340 340 340 340 341 341 340 338 338 342 344 344 344 343 342 341 339 338 338 338 338 338 339 340 340 340 339 338 335 335 336 338 337 335 334 334 337 338 335 333 329 328 330 331 326
301 301 301 301 302 303 302 302 303 304 306 308 307 308 309 307 306 307 309 309 311 311 314 317 321 322 324 323 323 325 325 327 329 331 334 336 337 337 340 340 339 337 336 334 334 336 339 338 336 334 336 341 343 343 344 343 340 339 338 339 338 337 338 340 339 339 337 337 336 335 337 338 337 336 336 335 334 334 334 334 334 332 332 333 331 327 325
305 303 302 302 302 302 302 302 304 305 306 306 308 308 307 307 306 306 307 309 311 313 316 319 321 321 322 322 322 323 326 328 329 332 334 333 334 335 335 336 332 329 329 330 332 333 332 331 331 331 338 341 339 340 341 339 338 337 336 335 333 328 328 330 333 338 337 336 335 335 334 334 334 334 334 333 334 332 331 331 332 332 332 329 328 326 325
306 303 302 301 302 301 302 303 304 304 305 306 305 305 306 306 305 305 307 309 313 317 320 321 320 320 320 319 318 319 320 323 327 329 330 331 331 332 332 332 331 331 329 330 330 332 331 330 330 332 333 338 338 339 339 338 337 336 336 339 334 334 331 331 332 332 334 335 334 333 333 332 331 331 331 331 331 330 329 329 330 330 330 328 327 328 326
302 300 299 300 301 301 302 303 303 303 304 305 305 307 307 308 309 309 311 315 317 320 319 319 319 319 318 315 315 315 316 318 319 320 320 322 325 328 329 330 329 328 328 328 329 330 330 329 329 330 332 333 337 339 339 337 336 336 336 337 337 337 339 330 330 333 335 332 330 330 331 331 331 331 330 331 331 330 329 328 328 330 331 330 328 327 324
305 303 302 302 302 301 301 303 304 305 306 308 308 308 308 309 310 312 315 319 319 318 317 317 317 316 314 313 313 313 313 313 313 314 314 315 317 319 322 325 325 325 325 325 325 327 328 329 329 329 330 332 333 334 337 338 338 338 336 333 332 330 331 330 331 332 332 332 332 333 332 331 330 330 330 330 330 329 329 329 330 330 330 329 328 327 319
310 310 310 309 307 307 307 306 306 306 307 306 307 307 309 313 317 318 320 318 316 316 316 315 315 313 312 312 311 310 310 309 310 310 310 311 312 314 317 319 319 319 318 318 320 323 328 328 328 328 328 329 331 332 332 332 332 331 331 331 330 328 327 327 326 325 325 326 328 326 324 324 324 328 327 325 324 325 325 326 327 327 327 327 328 329 324
308 308 309 310 310 311 311 310 309 309 308 307 309 312 316 318 318 318 317 315 315 314 312 312 312 311 310 309 309 309 308 308 308 308 308 309 310 311 312 312 313 315 315 315 318 320 325 327 331 332 327 327 328 330 331 330 329 328 327 326 325 325 324 324 323 323 323 322 322 322 321 323 322 321 321 320 320 320 320 321 321 322 323 323 323 324 325
306 307 307 308 309 310 310 310 310 312 313 313 315 316 316 316 314 313 313 313 313 312 311 310 310 309 308 308 309 309 308 308 308 308 308 308 309 309 308 309 310 311 312 311 315 320 323 325 328 328 325 325 326 327 329 330 325 324 324 323 322 321 320 320 320 319 318 318 318 318 318 317 316 315 316 316 315 315 315 315 316 316 316 316 316 316 316
303 305 305 306 307 308 308 309 310 312 311 309 310 311 311 310 310 310 309 310 309 309 309 309 308 309 309 309 308 308 308 309 308 308 308 308 307 306 306 306 307 309 309 310 316 319 321 322 325 323 321 323 324 325 326 327 328 322 321 320 319 319 318 317 317 317 316 315 315 314 313 313 312 311 312 312 312 312 312 311 311 311 310 311 311 311 311
301 303 304 305 306 306 307 308 309 310 310 308 308 308 309 309 308 307 307 307 308 309 307 306 306 306 306 306 306 307 307 308 308 307 307 307 308 306 306 306 307 309 311 314 314 315 318 320 319 318 319 319 320 322 326 328 326 319 318 317 316 316 316 315 314 315 314 314 312 312 311 311 310 310 309 309 309 309 310 309 308 308 307 306 307 307 308
301 302 302 303 303 304 305 305 306 307 309 310 308 307 308 306 305 305 305 305 306 308 305 305 304 303 303 304 304 304 306 307 307 307 307 306 306 306 306 307 309 310 313 315 312 313 317 318 316 315 317 317 317 318 321 323 323 319 316 315 314 314 314 314 313 312 311 311 311 312 310 310 309 309 309 308 308 308 307 307 306 306 305 304 304 304 305
301 302 302 302 303 303 304 304 304 306 307 308 309 309 310 308 307 306 305 305 306 307 306 304 303 303 303 303 303 304 305 307 307 306 307 306 305 305 304 303 308 310 311 312 312 312 314 315 314 312 314 316 317 319 316 319 315 314 314 313 313 312 311 311 310 309 309 309 310 308 308 308 307 307 307 306 306 306 306 305 305 304 304 303 302 303 303
302 302 302 301 301 302 304 304 305 304 305 306 308 309 309 310 309 309 309 310 309 309 308 306 307 304 303 304 304 305 304 305 306 306 306 306 305 304 303 305 309 310 313 313 312 311 310 309 311 313 310 311 314 319 319 315 312 312 312 311 311 311 310 309 308 308 308 307 306 306 307 306 305 305 305 304 304 304 304 304 303 303 303 302 302 301 301
304 303 302 302 302 302 302 303 304 304 305 305 306 307 308 308 309 309 310 309 308 306 306 307 309 309 308 304 303 303 303 304 305 305 306 307 308 308 306 307 309 310 313 312 310 308 309 308 308 309 313 312 311 315 314 309 310 310 310 311 311 310 309 308 307 307 306 305 304 304 304 304 303 303 303 302 302 302 302 302 301 302 302 301 301 301 301
306 306 305 305 305 305 304 304 304 305 305 305 306 307 307 307 307 308 308 308 308 309 307 305 305 306 308 307 307 306 305 304 303 304 304 304 305 308 310 310 310 312 313 311 309 308 308 309 309 311 313 312 312 311 308 305 306 307 308 308 309 309 309 308 307 306 305 305 304 303 303 304 302 302 301 301 301 301 302 301 301 301 301 301 300 300 300
307 307 306 306 306 306 306 306 305 305 306 306 307 307 306 305 305 306 307 306 307 307 308 307 307 308 307 307 307 306 307 307 306 305 303 303 302 303 307 311 310 310 311 312 310 309 308 309 311 311 311 310 310 309 304 304 304 305 304 305 305 305 306 306 308 308 306 305 304 303 303 302 301 301 301 302 303 302 301 301 300 300 300 299 299 298 299
307 307 308 308 307 307 307 308 308 309 307 306 305 306 306 305 305 305 305 306 306 306 306 306 306 306 307 307 307 307 307 307 307 308 308 306 304 305 308 309 309 310 310 310 308 307 307 312 311 310 310 309 309 307 305 305 304 303 303 303 303 304 303 304 304 305 305 306 306 304 303 301 301 300 300 300 300 300 300 301 300 299 298 297 297 297 297
306 307 307 307 308 309 309 308 309 308 307 306 304 303 304 304 304 303 303 304 304 305 306 306 306 306 306 306 306 306 304 304 305 306 307 308 311 310 311 311 311 311 310 307 307 306 308 309 311 309 309 309 308 304 304 304 303 303 303 303 303 302 303 303 303 303 303 303 304 306 307 305 302 301 302 301 300 300 299 299 298 298 298 299 298 298 297
306 305 305 305 305 306 307 307 305 303 303 303 304 304 306 306 304 303 302 302 302 302 303 304 306 306 306 306 307 307 306 305 302 302 306 306 306 308 308 306 308 309 309 310 310 312 311 310 310 309 309 309 306 303 303 303 303 302 302 302 303 302 302 302 302 302 302 303 302 302 302 302 302 302 302 301 300 300 300 299 299 299 299 298 297 297 297
305 305 304 304 304 304 303 303 303 304 302 303 303 302 302 302 302 303 304 302 301 301 300 301 303 304 306 309 308 306 309 309 306 303 306 306 306 306 307 309 309 308 307 305 305 305 310 309 309 308 308 308 303 303 303 303 304 305 303 302 302 302 303 303 302 302 302 302 302 302 302 302 301 301 301 302 302 301 302 300 300 300 300 300 300 299 299
305 304 304 304 303 302 302 301 301 301 302 304 302 302 302 301 299 299 301 302 302 302 300 300 300 301 303 303 303 306 306 308 309 308 308 307 306 306 307 306 307 308 307 305 305 305 308 308 308 308 307 303 303 304 303 303 303 303 302 303 302 301 303 303 304 303 304 305 303 303 302 302 302 304 303 302 302 302 301 301 301 302 302 300 299 299 299
304 303 302 303 303 303 303 303 303 303 302 303 303 304 302 300 299 300 300 301 301 300 299 299 299 300 300 302 302 303 304 305 307 309 306 306 307 308 307 307 306 307 306 305 304 303 303 303 304 305 304 304 302 303 303 303 302 303 303 301 302 301 301 302 302 301 302 303 301 301 302 302 301 301 301 301 301 301 301 302 301 300 299 298 297 297 297
302 304 305 303 303 302 301 302 305 303 302 302 301 302 301 300 299 298 299 303 300 299 299 298 297 299 300 300 302 302 303 304 305 305 307 306 304 304 306 306 304 305 303 302 301 302 302 304 306 306 305 302 302 301 304 304 301 301 302 303 303 301 302 301 301 301 300 301 301 302 302 301 301 300 301 300 301 301 300 300 300 300 300 298 297 297 296
Wind_Speed
15 15 13 13 14 9 3 19 14 14 18 21 20 8 8 9 6 8 5 9 9 5 5 5 4 5 5 8 10 6 7 9 8 15 20 17 16 8 15 18 19 19 18 16 16 16 17 17 17 16 16 16 15 14 15 16 16 16 16 16 17 17 17 18 18 17 16 16 15 15 16 16 16 16 15 15 14 13 14 15 13 14 14 14 14 13 13
15 12 10 8 12 11 6 2 11 17 12 21 23 11 7 12 6 5 9 11 10 8 6 5 9 5 7 9 9 9 7 10 10 10 15 16 12 10 14 13 14 15 17 17 17 17 17 18 18 16 15 16 16 16 16 16 16 15 15 16 17 16 17 17 16 16 16 14 15 15 15 16 16 16 15 15 15 15 15 16 15 14 14 13 14 14 14
11 11 11 10 10 9 5 3 1 2 4 11 21 17 10 7 10 6 8 8 5 2 7 4 2 8 10 12 12 10 7 8 10 11 12 12 9 10 11 11 11 10 12 13 12 14 16 18 18 16 15 15 16 16 15 16 17 15 15 15 16 17 17 16 16 15 14 15 14 15 15 15 15 15 16 14 14 15 14 15 15 15 14 15 14 14 15
10 9 11 11 9 12 11 1 4 4 2 7 15 18 12 6 7 11 5 6 4 5 6 7 7 8 10 9 8 7 6 8 7 10 11 10 11 11 10 10 10 10 10 10 12 13 15 16 16 14 13 13 14 15 14 15 15 14 14 15 17 17 16 15 15 16 15 15 15 15 15 15 15 16 15 14 14 14 14 14 14 13 14 15 14 13 13
8 13 14 12 10 11 5 3 4 2 4 3 6 13 14 8 5 12 6 8 8 7 10 9 6 10 8 10 8 11 13 10 8 8 4 11 11 12 12 11 11 11 11 10 11 13 12 12 12 12 11 12 14 14 14 13 12 14 15 14 15 16 15 15 16 15 15 16 16 15 16 15 14 14 15 15 14 13 15 14 12 13 15 14 14 13 13
10 16 17 11 6 3 4 1 3 0 2 6 7 11 17 9 5 4 7 5 4 7 12 13 7 11 8 9 8 10 10 8 9 8 9 8 9 11 8 9 9 7 7 8 8 9 8 8 10 9 9 10 11 12 12 11 13 14 14 13 13 14 14 15 15 15 15 15 16 15 14 14 14 14 14 15 15 13 12 11 12 13 13 15 14 14 13
7 12 11 3 4 5 3 7 3 2 4 6 2 7 3 6 9 3 9 9 6 6 7 9 9 9 8 12 11 11 9 6 5 6 8 11 7 6 6 6 4 5 7 6 6 5 6 6 5 5 5 6 6 7 9 12 12 13 14 14 11 12 14 14 15 15 15 15 15 14 14 14 14 14 15 14 14 13 12 13 14 13 14 14 14 14 14
6 3 6 1 2 5 8 8 7 7 5 1 4 7 8 13 13 2 9 16 8 9 12 11 6 11 14 12 9 11 15 14 14 15 11 7 4 4 7 8 7 7 8 8 6 4 1 5 6 6 7 6 7 7 7 10 11 12 12 13 11 11 13 14 14 15 15 15 15 14 14 14 14 15 14 14 14 13 12 11 11 11 11 12 13 14 15
3 7 6 6 4 6 4 4 4 3 3 4 6 4 14 24 18 12 4 8 15 11 11 10 9 11 15 13 10 14 16 15 15 14 14 16 18 15 12 11 9 7 8 8 5 4 3 4 3 3 5 7 8 7 7 7 9 10 10 12 12 10 12 13 14 14 14 15 14 14 14 14 15 14 14 13 12 11 12 12 12 12 13 14 13 14 14
5 7 7 4 0 1 4 4 5 3 5 8 3 6 16 22 24 22 9 8 10 13 13 11 11 12 15 12 10 11 13 14 14 14 15 15 14 13 11 9 9 9 7 6 6 6 5 5 3 2 1 4 7 8 8 7 7 9 10 12 12 10 11 13 13 13 14 14 14 14 14 15 14 13 13 11 12 11 13 13 13 13 13 12 11 12 13
7 6 3 2 1 1 6 13 12 15 4 4 4 11 14 16 19 19 20 18 14 11 7 10 9 12 12 8 7 8 11 13 12 13 13 12 11 10 10 8 8 6 5 4 3 4 3 3 5 4 1 1 3 7 9 9 9 9 11 11 11 11 9 10 11 12 13 14 14 14 14 13 13 13 13 12 10 10 11 11 12 10 10 11 11 11 12
5 5 2 3 2 5 16 17 16 11 14 5 8 8 7 15 17 17 17 19 19 17 18 18 16 11 10 8 4 5 9 11 12 12 12 12 11 9 7 6 6 5 3 3 4 4 2 0 3 4 3 0 2 4 7 8 10 11 12 11 9 7 7 9 10 11 11 13 13 14 13 12 11 11 10 10 11 11 10 10 10 10 9 10 12 11 11
6 7 5 4 3 6 16 15 20 17 9 5 11 5 3 13 11 14 15 18 17 15 15 12 12 8 8 7 7 10 11 12 13 13 13 12 11 11 12 10 9 8 7 6 5 4 4 4 3 4 5 3 2 3 4 5 10 13 10 6 7 8 8 8 10 11 11 12 13 12 11 11 11 10 10 10 9 10 10 9 9 9 10 9 9 10 10
5 5 6 5 1 5 15 7 15 16 7 8 7 1 7 7 10 11 13 14 14 14 14 11 9 9 8 9 11 13 14 13 13 11 10 9 9 10 9 10 7 6 6 5 6 7 5 6 6 6 5 5 4 3 4 7 11 6 5 7 8 8 9 9 9 10 11 10 11 10 10 10 10 9 8 9 9 9 8 9 10 10 9 8 7 7 7
4 3 5 3 4 8 17 13 13 18 10 4 1 4 4 10 11 13 13 14 13 11 11 11 10 11 12 13 13 12 13 12 10 8 9 9 9 8 7 8 8 7 6 6 4 4 5 4 5 5 4 4 4 5 5 7 6 6 7 7 8 9 9 9 9 10 9 11 10 8 9 10 10 9 8 9 9 8 9 9 9 10 10 9 7 6 6
4 2 2 1 3 7 12 14 7 6 9 6 2 3 7 10 11 12 10 13 13 14 9 10 10 11 11 13 12 11 11 9 8 8 7 7 6 6 7 5 4 5 6 4 5 5 3 4 4 4 5 4 4 5 7 6 5 6 7 8 8 9 9 9 9 9 9 10 10 9 10 9 9 9 9 8 9 9 9 9 8 9 8 8 8 7 6
3 2 2 1 3 4 9 10 10 8 10 8 8 8 9 8 9 9 9 12 13 13 12 8 8 10 11 11 12 11 10 10 9 8 8 8 8 8 7 8 6 6 6 7 7 4 1 3 4 4 4 4 5 6 5 4 4 5 5 7 7 8 8 8 9 8 8 9 9 9 9 9 9 8 8 8 9 7 8 8 8 9 8 8 9 8 7
7 7 8 2 1 8 10 9 7 9 10 10 10 10 8 9 9 9 10 11 12 13 13 12 10 10 9 10 10 10 10 10 9 8 7 8 7 6 7 5 5 5 6 7 4 4 5 7 8 4 4 4 5 5 1 2 3 4 5 6 6 7 7 7 8 8 9 8 9 9 8 7 8 8 9 9 9 7 8 9 8 8 7 8 8 8 7
6 3 4 2 3 5 6 6 7 8 8 9 8 7 8 8 9 10 10 10 11 13 12 14 12 13 12 11 10 9 9 11 11 11 9 7 8 8 9 8 6 6 6 6 4 5 6 6 6 6 5 6 4 5 4 2 1 1 2 6 6 6 7 7 7 8 9 7 7 7 7 6 6 7 8 8 8 7 8 8 8 7 7 8 7 7 7
5 7 9 10 8 7 5 4 6 5 6 6 8 7 5 6 8 10 10 10 10 11 11 13 13 13 15 14 13 12 12 12 12 12 12 11 10 8 6 6 6 5 5 4 4 4 5 7 7 8 7 6 7 7 6 6 4 2 3 5 6 6 7 7 7 7 7 9 9 7 6 6 7 8 8 8 7 8 8 8 8 6 6 7 7 7 7
8 13 10 5 5 7 6 3 4 9 8 7 8 8 8 9 9 9 9 9 9 9 10 10 10 10 12 12 10 9 9 10 9 9 9 8 7 7 5 5 4 5 4 4 4 4 5 5 6 6 7 7 7 6 5 5 4 3 3 5 6 6 6 6 6 6 7 7 7 7 9 10 11 9 5 1 4 5 5 1 5 7 6 5 5 4 5
7 6 6 6 4 3 5 8 7 6 6 5 4 4 6 6 8 8 8 6 7 7 8 9 9 8 8 9 10 9 7 8 8 7 8 8 7 6 5 5 5 4 3 2 2 3 4 4 5 6 6 6 7 6 6 5 3 4 3 3 4 4 5 5 6 6 6 6 8 9 9 9 10 10 14 16 11 6 3 6 10 10 10 5 7 8 9
6 5 8 8 8 5 0 4 5 3 2 5 5 5 4 4 3 2 3 5 5 7 7 6 7 7 7 8 9 8 7 8 7 7 7 7 7 6 6 5 5 2 2 3 2 3 3 3 4 5 5 5 5 6 5 5 4 2 4 4 4 2 4 6 6 6 6 7 8 8 8 9 9 10 9 13 18 18 13 10 16 19 19 17 14 12 14
12 12 11 9 5 6 8 5 4 5 5 5 3 3 2 2 3 2 3 4 5 5 5 5 5 6 6 6 6 6 7 7 8 8 7 6 6 5 4 5 3 3 2 2 2 1 1 1 1 3 5 4 5 5 5 5 5 6 7 7 6 5 6 6 6 6 8 9 9 9 7 8 10 10 11 11 11 15 17 16 19 20 19 18 17 16 16
10 10 13 14 13 12 9 7 6 4 4 4 5 3 2 2 1 4 4 3 2 3 4 5 5 5 5 5 4 4 4 5 7 7 7 7 8 5 4 4 4 3 1 1 2 1 1 1 1 2 3 4 6 7 5 5 5 7 7 8 8 7 7 8 8 8 8 9 8 9 9 9 9 10 11 12 13 9 10 15 18 18 17 16 16 15 14
14 15 15 16 17 16 10 9 7 4 5 5 4 3 1 1 4 4 3 2 1 0 1 3 4 5 4 3 3 4 4 4 5 7 7 7 7 5 3 6 5 3 3 2 1 1 2 2 2 2 2 4 5 6 5 6 7 8 8 9 8 7 7 8 9 7 7 8 8 8 6 7 8 8 8 10 11 11 11 9 10 11 10 11 12 14 12
18 15 13 16 17 15 10 8 8 4 5 6 5 8 8 2 2 1 2 1 1 0 0 2 4 4 4 3 3 4 4 5 5 6 6 7 9 7 4 6 5 4 4 2 1 3 2 1 2 3 4 4 5 5 5 5 6 8 9 8 8 11 14 9 8 7 7 7 8 8 7 8 8 9 9 10 10 10 9 9 9 8 7 5 6 6 8
18 17 13 15 15 11 6 5 5 5 4 6 5 6 9 8 7 5 6 6 3 0 0 0 3 2 1 2 4 4 4 4 4 7 9 8 6 6 3 5 6 3 1 1 2 4 6 4 3 4 4 2 3 4 5 4 4 7 7 8 8 8 8 8 8 7 7 7 8 8 7 7 7 8 9 8 8 8 8 9 9 9 6 4 3 3 11
18 18 17 17 16 12 10 12 11 6 4 3 3 2 6 9 10 10 10 9 10 9 6 4 2 1 0 1 1 2 3 4 5 5 7 7 6 7 4 2 2 6 5 5 5 3 3 3 4 4 4 5 7 7 8 8 8 7 7 7 8 7 8 7 7 8 8 8 8 9 9 8 7 7 7 8 8 9 8 8 8 7 7 5 5 7 7
17 17 18 18 15 13 12 12 11 7 4 3 4 2 1 4 7 8 9 11 11 13 12 11 7 3 3 3 2 0 1 4 5 5 4 3 5 5 5 3 6 5 7 7 7 6 5 5 5 4 4 3 6 6 7 7 7 8 9 8 7 6 6 7 8 7 8 8 9 11 9 8 7 7 8 8 9 9 9 8 8 8 7 6 6 7 7
12 14 17 16 15 13 12 11 9 6 4 4 2 1 2 2 4 5 6 8 9 10 11 11 7 6 6 6 4 4 4 4 3 3 3 4 5 6 7 5 5 5 5 4 4 6 7 7 8 8 6 2 7 6 7 7 7 8 8 8 7 10 11 10 7 7 7 8 9 9 9 8 7 8 8 8 8 8 7 7 8 8 7 7 7 6 3
8 11 14 13 13 12 10 8 8 6 4 4 4 3 2 3 4 4 5 5 5 7 6 4 4 6 6 6 8 9 9 9 9 8 8 8 8 8 7 7 5 3 4 5 6 6 6 7 9 7 7 5 6 7 6 7 8 9 7 6 6 6 7 10 7 9 8 9 9 9 8 8 8 9 9 9 8 7 7 8 8 8 7 7 5 5 3
3 8 11 12 10 9 9 7 7 6 5 4 3 1 3 3 3 4 4 3 3 1 3 4 3 5 5 9 11 10 10 10 7 9 12 11 11 11 10 8 6 6 6 6 5 5 7 8 7 8 10 11 8 4 6 6 6 7 6 6 6 6 6 7 8 8 9 9 8 7 7 7 7 7 7 7 7 6 5 4 5 8 7 6 5 4 3
6 2 3 8 6 8 9 6 5 5 3 2 1 2 4 4 4 4 2 0 3 5 6 6 5 5 9 12 12 12 13 13 9 10 13 12 11 12 11 10 8 8 8 7 7 7 7 7 8 9 11 10 9 9 7 7 6 6 8 9 9 9 10 9 10 9 9 10 10 11 11 11 11 11 10 10 9 9 9 9 9 6 5 4 4 3 1
9 8 10 4 5 4 4 4 4 4 3 2 2 4 5 2 0 1 3 5 5 5 9 7 5 7 13 14 14 15 16 13 8 9 15 14 13 12 11 10 8 8 10 12 11 9 7 8 9 10 11 12 12 11 11 12 12 11 11 11 12 11 11 12 13 12 12 11 12 12 12 12 11 11 12 11 10 9 10 9 9 9 9 8 6 4 4
16 13 11 11 12 14 9 4 1 2 3 5 4 1 1 3 5 5 8 11 7 8 12 11 7 11 15 14 13 14 15 14 10 11 15 15 12 11 12 12 10 10 11 15 15 12 8 9 15 17 12 12 14 14 13 13 14 13 13 12 11 11 11 12 11 12 11 11 11 11 11 13 14 12 11 10 10 10 10 10 10 9 9 10 9 10 10
20 16 15 15 15 15 14 12 12 9 6 5 3 5 8 10 12 13 13 11 8 9 12 13 12 13 15 13 13 13 12 11 11 10 11 12 12 14 14 14 15 14 13 15 13 11 9 10 16 19 14 13 15 15 15 18 12 12 12 12 11 11 11 11 11 11 11 11 11 11 12 11 11 10 11 10 10 10 10 10 10 11 11 10 10 11 10
23 20 20 21 17 13 15 19 15 8 12 16 13 10 13 11 13 16 14 13 11 10 11 13 15 12 11 12 14 14 13 11 11 11 10 12 14 18 18 17 15 13 13 11 10 9 10 13 16 14 12 13 13 14 17 21 21 14 12 12 11 11 11 11 11 11 11 10 10 11 11 10 10 10 10 10 10 11 11 10 11 10 10 10 10 9 9
24 20 20 20 17 17 24 21 16 14 18 19 14 13 12 14 14 16 16 16 13 10 11 12 14 14 13 16 15 14 14 12 12 13 12 11 14 19 16 13 12 11 9 8 10 12 13 14 11 12 12 13 14 14 17 22 21 14 13 12 12 11 11 11 11 11 11 10 10 10 10 11 11 11 11 11 10 10 11 13 11 10 11 10 10 10 10
19 18 19 22 21 22 22 20 19 19 16 16 17 13 10 12 15 18 18 18 13 10 10 11 15 14 14 15 15 14 12 11 11 12 12 12 14 15 15 16 15 12 13 18 15 14 19 22 15 12 12 13 14 13 15 20 18 13 13 13 12 11 11 11 11 11 11 10 12 13 12 11 11 11 11 11 10 11 10 10 11 10 10 9 9 9 9
17 18 19 18 19 20 19 18 17 15 16 18 16 13 12 13 16 18 17 15 11 10 11 12 15 15 15 14 14 13 13 13 13 12 12 15 15 13 13 13 11 11 14 14 14 15 19 17 14 12 10 12 13 15 14 19 15 12 13 13 12 12 12 12 11 11 10 11 11 11 11 10 10 11 10 10 10 9 9 9 10 9 9 9 9 9 9
15 15 16 18 18 17 15 14 14 16 18 17 16 14 14 13 13 12 10 10 9 8 11 15 18 16 14 14 14 13 14 13 14 15 16 15 12 11 14 11 10 11 19 17 16 15 14 15 15 15 14 13 14 22 21 15 13 12 11 12 12 12 12 12 12 11 11 11 10 10 10 9 9 9 9 9 10 9 9 9 8 9 9 10 10 10 10
12 13 13 14 15 15 14 13 13 14 14 13 12 12 13 13 14 13 12 10 11 11 13 12 13 14 12 11 12 13 12 11 12 12 13 12 12 12 12 9 9 12 21 14 14 12 13 13 14 15 23 20 17 23 20 13 12 12 11 11 11 11 12 11 11 10 10 10 10 10 9 9 9 8 9 9 9 9 9 10 10 9 9 9 9 10 10
9 9 9 10 10 9 9 11 12 12 11 11 10 11 12 12 12 12 12 12 13 12 11 11 12 12 12 10 10 10 9 9 9 8 9 10 11 11 9 9 9 14 21 13 12 12 12 12 12 20 28 27 27 23 14 12 12 11 11 11 10 9 9 10 10 10 10 10 10 9 9 9 9 8 8 8 8 9 9 9 9 9 9 9 9 8 8
8 8 9 9 9 8 8 8 9 10 9 8 9 10 11 12 13 12 13 13 13 13 13 12 10 9 9 10 10 9 9 8 8 8 9 10 11 10 9 9 10 8 12 13 10 11 10 10 15 23 20 21 21 20 12 12 11 11 11 10 10 10 9 9 8 8 10 10 9 9 9 9 9 9 9 10 10 9 9 9 10 9 9 9 9 9 9
7 7 7 8 8 7 6 6 6 6 7 9 10 11 11 11 11 10 10 11 11 11 11 11 10 11 9 8 8 10 10 9 9 9 9 8 9 8 9 12 10 12 18 16 9 10 11 20 19 17 17 17 17 12 11 11 11 10 11 10 10 9 9 9 10 10 8 8 8 8 9 9 9 9 9 8 9 9 10 11 9 9 9 9 9 9 9
6 6 6 5 5 6 6 7 7 7 7 7 8 9 9 11 10 10 9 10 9 9 10 10 11 10 10 10 8 7 7 8 8 8 7 7 8 10 12 16 16 18 14 10 9 10 10 12 13 16 17 18 16 10 9 9 9 9 9 9 9 9 9 9 9 9 9 9 9 8 8 8 8 9 9 8 9 8 7 8 7 8 7 8 9 10 10
5 6 6 7 8 7 6 5 6 8 9 9 8 8 7 7 8 8 9 9 10 10 9 8 8 9 10 10 9 8 7 6 8 7 6 7 7 6 6 6 10 16 16 15 15 13 16 16 16 16 16 14 9 8 9 9 9 8 8 7 6 7 7 8 7 7 7 8 8 8 8 8 7 6 7 7 7 7 6 7 7 6 6 7 7 8 8
6 6 7 7 8 8 8 8 8 6 6 7 8 7 7 8 8 7 5 7 8 8 9 9 8 7 7 7 8 7 6 6 6 6 5 6 7 8 8 10 15 15 11 10 10 10 16 18 17 17 16 14 9 8 8 8 8 8 8 8 7 7 6 5 5 5 6 6 6 6 7 7 7 6 6 6 5 5 5 6 6 6 6 6 6 7 7
6 6 5 5 6 7 6 7 7 7 6 5 6 6 6 7 7 8 8 5 6 8 7 8 8 7 5 5 6 5 6 6 6 6 6 7 9 9 9 9 10 15 14 9 8 9 13 16 14 15 11 7 7 7 6 7 7 7 8 9 9 8 9 9 8 8 5 5 5 5 5 5 5 6 6 6 5 5 7 7 7 10 14 10 8 7 7
5 6 6 7 7 7 7 6 6 6 6 6 5 6 7 7 7 7 7 8 5 6 6 7 8 8 8 6 6 7 7 6 8 9 7 7 7 10 10 8 9 9 9 9 7 7 7 7 7 8 8 7 7 7 7 7 6 6 7 8 9 8 8 9 8 8 7 5 6 7 6 6 6 6 6 6 7 7 6 6 6 6 7 7 8 8 8
8 5 4 5 5 5 6 6 4 5 6 6 6 5 6 6 5 5 6 10 6 5 6 6 7 7 7 8 7 6 6 7 6 6 6 7 7 6 8 11 8 9 8 7 6 6 6 6 8 11 11 7 6 6 8 9 8 8 8 7 7 8 8 8 8 8 9 9 8 7 7 6 6 6 5 5 5 5 5 5 5 6 6 7 8 8 8
Wind_Direction
309 299 299 315 306 316 223 192 205 214 192 205 222 191 175 153 148 193 206 153 162 206 223 215 205 193 166 156 117 122 117 96 102 150 166 176 180 160 170 166 170 170 172 173 173 176 182 184 184 181 181 184 184 185 187 188 190 190 186 188 192 194 195 199 201 200 200 200 201 199 198 197 199 199 199 197 195 193 193 198 200 201 199 196 197 199 200
297 295 293 286 300 298 287 336 216 219 214 195 213 211 186 170 168 186 169 164 169 191 175 173 163 152 114 118 116 103 86 84 97 120 159 164 158 150 167 167 165 169 172 177 179 178 180 183 184 181 181 183 185 185 186 188 192 189 183 188 189 192 196 199 199 198 199 200 200 198 197 197 198 199 198 197 196 196 196 197 198 200 200 197 198 199 199
305 294 314 294 291 281 300 227 230 246 256 215 198 215 217 177 168 185 177 148 173 205 135 116 56 79 103 101 99 100 104 102 103 110 115 117 115 119 143 155 156 162 170 172 175 176 179 183 183 182 182 183 184 187 186 188 191 190 186 186 189 192 196 195 194 193 195 199 198 200 200 198 197 197 198 197 197 199 198 196 197 196 197 200 201 199 199
324 346 317 308 287 313 273 276 341 317 20 342 191 203 212 187 169 181 162 141 145 213 108 99 91 103 92 91 93 94 101 100 100 107 114 114 120 113 114 123 125 137 150 161 167 176 182 183 182 181 178 178 181 189 188 190 190 189 189 188 190 194 194 190 190 191 194 195 198 200 198 200 198 198 198 197 199 199 198 197 196 193 197 201 202 198 199
312 311 326 297 340 345 360 318 273 294 315 253 247 200 209 206 157 171 158 206 203 174 132 109 91 90 84 74 73 78 66 61 62 67 121 142 137 132 135 137 139 142 146 153 162 169 174 178 181 181 170 172 183 189 188 188 183 190 194 191 192 193 192 188 189 190 190 194 197 198 200 199 199 198 199 201 200 198 200 198 191 194 199 198 200 199 197
301 317 322 340 6 309 244 232 210 267 296 25 359 202 192 214 154 184 155 194 158 137 131 122 121 91 98 106 98 97 96 76 49 50 65 75 111 114 116 132 137 139 138 148 149 153 158 167 175 178 174 172 183 185 185 179 183 191 195 195 191 193 191 190 188 188 189 192 195 197 197 198 198 198 200 203 203 200 198 194 195 198 197 198 199 200 201
307 314 319 31 266 243 272 287 336 324 335 41 72 3 38 206 217 180 143 144 141 91 87 111 124 116 92 71 62 61 66 81 87 80 82 89 71 97 114 99 91 137 145 137 134 132 151 156 157 144 164 173 169 174 177 183 186 188 194 198 190 188 191 191 188 188 189 191 194 194 193 194 197 199 200 203 203 202 198 198 198 198 196 198 201 202 204
300 324 11 138 230 294 313 338 347 341 297 117 35 24 5 8 12 179 165 156 160 110 101 95 98 97 95 74 58 65 66 66 68 54 38 49 72 96 99 93 81 94 97 85 78 83 88 161 170 169 180 167 160 183 176 177 187 190 191 196 193 183 189 190 190 189 188 190 192 191 191 193 196 199 199 200 202 201 202 203 203 201 203 201 202 204 205
342 334 300 270 319 304 321 326 7 341 56 52 71 99 38 18 0 346 111 116 112 113 98 91 79 82 78 70 33 38 60 62 60 61 56 62 67 59 40 48 55 59 77 78 71 78 74 86 119 181 190 172 173 176 180 182 179 189 190 197 197 185 188 189 189 189 189 189 189 189 190 192 197 198 198 199 201 197 204 206 201 201 203 204 204 203 204
346 325 319 330 230 305 329 354 293 314 46 59 87 92 32 7 359 359 357 93 96 104 98 96 96 82 73 57 40 46 57 58 59 64 68 62 60 59 55 44 40 34 35 47 45 55 26 5 21 86 61 200 182 176 189 187 177 188 194 203 200 188 188 188 187 186 188 187 188 188 190 195 195 196 197 199 200 195 202 204 206 206 205 207 207 206 205
318 308 310 283 258 139 13 327 342 344 325 57 72 64 41 351 352 1 21 32 33 49 75 106 87 73 74 63 32 34 61 63 56 59 60 62 58 59 66 60 50 40 20 33 47 62 51 351 310 331 33 102 184 201 190 192 191 192 203 206 200 196 187 181 183 184 186 187 187 188 192 194 192 193 195 197 196 194 204 207 212 210 206 207 209 210 211
250 274 273 279 304 26 340 340 341 334 325 74 58 59 16 339 335 4 22 36 36 45 58 64 60 72 84 73 47 28 56 68 68 62 53 46 40 38 49 64 60 48 39 48 37 45 75 205 312 305 298 245 187 211 222 198 195 206 209 207 198 190 174 177 179 182 184 186 188 188 190 188 190 192 189 191 194 195 200 204 209 212 209 209 209 212 212
245 243 253 276 301 3 336 357 348 339 331 57 66 75 332 305 338 12 21 33 31 31 41 46 72 53 68 65 50 44 49 62 60 57 51 43 34 30 27 28 30 24 21 22 11 22 358 331 317 319 334 329 242 211 208 215 215 212 206 180 176 180 175 174 179 182 182 184 186 187 185 185 186 187 188 191 189 193 198 200 207 211 215 212 213 215 211
259 269 267 252 219 19 328 348 8 356 17 52 90 175 244 285 359 21 25 34 33 28 35 40 53 61 57 56 49 44 44 54 64 60 52 47 39 30 18 13 25 20 0 357 9 0 353 15 9 347 325 302 303 267 212 220 228 221 166 176 175 171 174 176 178 181 182 181 181 181 178 175 182 188 186 186 189 192 193 198 204 210 214 217 216 215 212
257 265 296 345 5 339 346 349 30 27 66 71 219 252 340 19 15 15 17 20 29 31 33 34 42 41 40 44 44 43 41 43 47 51 54 51 40 26 18 12 11 12 355 353 355 336 342 356 347 329 333 324 303 294 261 243 227 196 187 173 171 173 173 174 179 179 178 173 175 177 176 176 179 183 179 184 190 188 192 197 201 206 210 213 216 215 211
265 225 256 74 234 272 354 26 43 33 88 132 80 5 26 21 23 15 14 12 12 14 33 41 35 36 33 35 36 40 37 34 36 48 52 53 42 35 15 5 354 353 348 344 346 322 351 337 316 305 295 290 290 283 268 248 201 183 172 169 167 171 175 177 173 175 174 172 173 173 173 175 177 177 179 183 186 189 189 193 195 203 207 208 215 217 213
293 295 22 239 249 325 19 16 18 10 50 57 53 33 38 23 23 12 16 5 3 16 19 31 40 47 34 34 27 32 25 28 28 34 36 37 36 29 14 8 13 6 347 325 296 269 264 303 316 326 311 275 272 276 260 198 167 157 152 157 162 170 175 173 169 169 168 167 172 171 174 172 175 177 181 179 187 186 186 189 191 198 199 197 207 212 211
321 289 254 202 10 32 8 12 354 1 24 48 51 42 27 21 23 25 14 357 5 4 15 14 20 37 45 36 27 23 22 19 18 17 25 31 26 20 15 6 6 350 337 328 356 17 7 10 358 337 352 17 357 290 222 131 121 136 130 148 161 170 170 168 166 160 163 168 170 172 167 168 171 176 179 182 185 181 184 190 192 192 190 192 199 203 203
327 274 9 68 82 54 26 346 359 359 358 31 45 50 39 11 15 22 12 6 7 2 10 12 7 8 21 32 25 18 16 13 11 9 13 20 22 19 16 358 356 347 346 344 13 15 11 358 356 343 347 340 336 335 360 19 127 147 110 148 160 161 164 162 161 158 162 165 165 165 162 156 163 173 176 182 181 180 184 190 190 185 185 187 189 182 186
274 285 303 316 326 338 329 13 353 358 6 35 47 41 36 29 23 21 12 6 11 4 11 4 4 4 6 12 13 9 9 7 2 4 2 3 2 7 6 349 342 342 347 348 8 7 15 355 0 349 342 346 341 349 352 9 3 85 124 144 149 154 153 154 159 158 159 157 153 159 156 152 167 178 180 173 180 180 184 183 181 182 167 169 173 177 176
304 299 303 304 312 297 281 286 2 353 4 35 39 21 27 27 27 17 15 6 5 2 10 1 359 3 1 3 359 7 360 1 355 1 351 349 343 339 345 331 337 335 345 359 14 34 25 6 7 349 346 343 342 354 353 355 357 61 88 123 129 134 142 140 152 152 152 150 143 116 87 71 58 35 358 320 120 84 26 330 189 160 143 108 100 87 90
284 280 296 344 346 327 4 42 41 8 10 15 22 26 38 31 33 11 358 359 9 4 6 358 349 11 353 350 350 348 358 357 351 347 342 337 333 334 334 326 309 304 2 4 32 38 10 10 7 347 345 341 350 351 350 346 355 104 83 89 112 129 138 143 150 147 144 130 115 115 113 105 95 68 55 52 36 60 45 20 67 93 118 127 137 120 96
277 308 316 334 333 307 227 24 18 9 36 15 4 33 23 25 27 40 335 3 357 6 355 344 350 350 352 340 341 348 358 349 342 338 333 329 328 327 320 313 314 339 350 330 345 40 358 10 9 344 342 348 360 355 356 355 351 97 110 83 67 70 123 149 151 144 133 117 115 110 117 112 103 104 88 48 42 40 45 56 83 79 79 85 85 95 109
295 291 292 302 300 291 316 345 24 18 13 346 345 345 351 359 333 12 37 30 12 348 342 336 340 334 325 328 340 340 346 343 339 322 313 313 311 313 314 310 304 316 323 5 38 69 327 343 28 357 339 339 352 5 10 21 33 73 79 85 77 68 65 63 73 83 107 114 114 110 107 114 114 116 104 96 58 34 33 49 68 80 84 85 88 91 99
287 310 315 313 310 301 299 312 316 317 298 306 292 270 270 292 344 37 27 27 357 342 336 332 327 315 320 314 318 330 335 328 317 315 312 311 299 297 302 287 284 284 283 233 264 306 344 358 11 15 357 355 13 16 11 38 37 72 85 90 88 79 76 76 73 75 97 107 111 114 119 117 121 120 120 115 108 95 44 44 56 63 72 82 87 90 90
290 292 298 300 301 295 295 296 289 295 302 288 297 322 336 21 360 360 349 329 297 14 334 305 316 312 316 318 323 318 315 307 308 316 309 303 309 310 300 295 278 262 269 268 287 340 320 11 9 346 18 33 30 24 24 65 73 69 74 81 85 88 86 86 84 76 83 104 108 104 104 110 113 111 107 112 118 119 115 106 74 58 53 62 77 84 83
281 278 285 292 284 282 273 265 279 292 292 306 319 314 314 335 14 312 281 251 248 251 247 279 280 284 302 315 333 317 317 319 309 290 284 297 298 291 262 267 270 261 252 240 223 256 281 1 15 46 56 37 22 20 24 37 73 84 87 83 82 74 71 73 81 81 82 96 108 115 123 126 122 117 119 125 126 122 122 117 112 110 104 61 24 56 97
265 266 251 249 254 263 307 306 280 264 265 272 297 309 313 336 338 347 338 333 330 36 81 352 328 312 333 336 310 298 315 327 332 325 315 301 298 291 269 264 267 286 17 40 90 111 113 123 94 51 34 38 56 29 38 38 59 78 75 77 77 86 76 66 68 73 75 79 88 96 106 115 119 122 129 131 125 126 121 114 118 117 106 88 102 79 68
247 246 243 238 245 254 270 288 293 296 314 326 320 332 353 341 337 338 336 334 335 338 342 352 328 247 211 245 282 342 331 318 317 315 313 311 333 319 284 253 30 18 24 16 34 45 80 92 75 54 39 61 71 65 61 51 49 50 58 67 74 78 84 82 73 72 71 76 85 90 87 81 84 103 113 109 104 100 104 112 113 113 112 121 91 54 40
232 225 228 231 222 228 251 261 269 267 265 276 275 279 294 310 323 330 333 332 335 329 331 331 341 40 78 91 75 69 308 296 298 304 318 341 349 338 9 41 71 33 35 32 22 16 33 46 53 76 97 87 77 71 67 66 60 68 72 75 78 81 91 91 98 90 84 80 79 77 78 84 96 99 93 89 88 89 99 111 119 119 116 101 87 78 66
222 214 213 218 214 197 216 243 256 250 236 243 250 301 325 324 307 313 318 322 324 323 327 328 347 17 31 32 26 34 17 351 331 333 16 30 26 22 20 21 68 76 69 49 34 42 54 55 52 32 335 98 97 85 85 82 80 72 70 70 69 68 69 65 66 70 80 82 76 74 72 72 69 75 79 82 82 84 89 96 99 100 104 100 96 101 127
197 192 199 202 206 194 198 221 242 241 228 221 235 242 245 257 261 279 286 290 305 316 323 3 16 38 33 36 42 36 32 25 18 29 37 29 23 31 25 27 36 51 67 61 60 58 53 50 38 19 25 32 99 106 93 85 84 86 84 75 70 65 68 71 67 66 71 74 74 71 74 74 71 71 76 75 79 82 83 86 100 115 112 110 116 145 175
185 188 189 193 191 189 196 208 221 229 225 226 223 225 262 252 246 247 256 270 301 1 78 61 46 68 70 66 57 47 41 37 22 47 45 32 23 23 22 12 17 25 33 30 42 55 63 60 46 31 36 42 30 65 95 88 85 92 90 77 57 51 48 45 56 72 71 69 65 64 62 63 66 69 69 74 79 84 83 88 111 115 117 123 137 155 133
38 5 216 186 185 178 184 203 207 215 205 194 251 269 262 245 236 243 245 100 106 133 100 72 58 82 87 73 67 60 52 45 19 45 51 40 28 26 16 7 7 16 20 18 26 39 49 61 61 53 50 51 44 36 40 62 70 68 70 70 70 65 58 57 61 70 74 70 66 60 55 54 50 48 46 48 52 52 50 47 46 62 95 110 121 116 82
22 20 24 57 160 183 178 206 194 186 175 202 226 245 245 243 273 175 145 118 118 113 91 77 67 85 82 79 73 69 61 52 12 43 63 51 34 27 22 13 3 15 28 28 19 10 28 53 62 62 58 55 48 49 51 57 61 60 58 60 61 61 61 58 56 51 52 53 59 61 58 55 52 49 49 47 42 42 43 42 46 47 45 37 29 25 20
33 37 32 32 30 29 23 11 3 176 175 221 235 227 124 106 98 102 114 103 103 101 93 83 72 78 77 76 75 73 75 65 36 34 61 61 50 39 36 30 15 16 24 31 16 357 358 46 59 65 66 61 62 58 59 61 64 64 64 65 63 63 60 61 59 58 53 55 57 57 59 58 56 51 47 45 40 38 37 35 32 35 36 32 26 22 23
26 42 51 52 46 47 50 45 32 23 26 25 47 92 96 99 101 85 74 65 69 75 87 92 73 66 78 81 82 79 73 77 70 44 51 66 64 57 47 34 31 21 15 31 1 342 1 43 54 59 60 64 66 66 62 68 70 67 65 62 61 60 60 59 56 58 57 53 55 56 54 54 52 49 45 43 43 40 40 37 32 33 31 29 26 25 21
22 28 43 49 43 50 69 60 42 27 81 62 37 54 86 82 84 88 85 78 60 57 67 74 81 75 71 76 73 69 68 64 69 62 47 50 57 60 47 39 28 18 22 15 342 356 17 25 38 56 57 63 65 70 69 69 71 69 64 63 62 61 60 60 60 59 58 55 53 54 54 53 52 49 47 46 46 44 41 39 39 36 33 29 27 25 21
23 22 34 46 41 41 52 50 39 38 60 72 60 49 64 81 81 79 75 69 61 48 60 70 76 72 67 67 65 62 60 55 57 63 53 45 52 58 56 44 31 24 21 5 19 27 21 22 30 47 57 59 64 63 68 72 73 70 67 63 62 60 60 60 62 63 63 61 59 57 56 56 52 52 47 46 46 46 45 41 40 36 35 29 26 21 18
27 22 32 42 39 40 43 40 36 40 53 63 60 50 51 67 74 74 70 65 54 50 57 65 70 68 63 63 65 63 57 56 56 60 60 57 55 55 52 39 26 15 23 32 30 26 29 28 29 35 44 53 58 64 60 63 67 69 69 66 63 61 60 59 62 62 58 57 59 59 57 55 54 51 47 45 43 42 41 38 39 38 38 33 30 23 21
31 28 27 37 40 44 42 37 35 30 41 48 48 37 39 51 63 70 73 76 72 64 61 62 69 68 65 63 63 63 60 55 53 53 56 59 54 51 54 49 22 20 21 32 39 32 32 32 28 32 29 47 59 63 64 61 62 66 69 69 67 66 65 63 62 59 57 57 58 58 57 57 58 57 55 52 50 48 47 45 44 42 39 36 30 26 25
44 40 40 39 40 39 41 44 39 36 35 35 38 36 39 43 54 67 74 80 79 73 76 74 75 76 73 69 66 61 60 58 57 55 53 55 56 55 56 46 28 34 37 34 35 38 34 36 33 35 34 42 46 58 63 63 61 63 68 72 71 68 69 69 68 66 65 64 65 64 62 59 61 63 61 59 57 53 51 48 47 44 39 36 33 28 26
53 50 46 48 49 43 34 33 40 44 45 39 35 36 37 40 45 50 55 61 67 68 67 68 69 68 70 73 75 71 63 58 59 59 62 59 60 60 64 61 45 47 47 43 41 37 36 34 40 39 38 38 43 45 49 52 58 60 62 66 71 74 73 71 71 71 70 71 70 68 64 63 62 62 60 60 60 58 55 54 49 45 41 36 33 32 28
58 58 56 54 56 53 47 38 31 35 42 41 37 40 43 47 45 45 46 49 52 54 57 60 64 66 64 62 65 69 66 65 65 65 74 73 66 61 60 62 55 53 54 51 47 44 39 37 40 47 45 40 40 43 44 46 48 51 54 57 61 66 74 80 79 76 75 74 71 69 69 70 69 66 65 65 63 59 58 56 55 52 50 46 44 41 37
45 55 60 63 62 56 48 44 39 32 31 34 37 40 44 48 49 44 41 41 44 46 47 48 50 55 61 63 61 60 65 65 64 63 67 64 66 60 48 57 58 60 63 64 65 59 51 46 51 53 54 51 50 49 46 46 48 50 50 52 53 54 55 59 72 90 91 87 81 78 74 70 67 65 64 64 64 63 62 59 57 53 52 48 45 43 40
36 35 38 46 47 50 52 51 44 40 42 38 38 38 40 43 45 46 46 47 48 46 46 45 46 46 44 51 64 67 62 58 58 58 60 65 70 74 68 64 58 60 58 58 60 64 66 64 61 61 59 56 56 53 51 51 52 51 50 49 50 51 53 55 57 59 66 78 88 91 85 79 74 73 69 68 67 67 67 67 66 61 58 57 51 49 43
30 37 35 37 41 42 46 50 49 49 43 40 41 43 38 40 39 38 35 34 41 51 53 50 42 42 44 46 46 50 59 66 60 50 56 59 63 63 63 66 64 62 58 56 55 59 62 62 62 63 64 64 62 59 56 56 55 55 57 61 59 55 55 58 58 58 59 62 63 68 80 91 93 87 83 80 78 76 76 75 72 68 66 64 61 54 50
39 52 47 46 46 39 29 36 50 54 50 47 45 38 33 33 36 36 37 37 36 33 37 43 51 46 42 41 42 44 45 51 70 57 38 55 65 82 84 73 65 61 58 53 51 47 52 58 55 55 55 54 54 54 57 55 54 52 49 45 45 57 66 67 65 64 67 69 67 69 66 67 73 85 92 91 89 88 90 84 83 79 71 68 66 62 60
35 45 53 52 51 46 44 39 36 43 57 63 59 50 44 40 36 24 28 43 42 36 35 28 29 36 43 40 42 34 36 41 56 73 61 61 59 57 55 61 66 64 58 55 49 48 49 53 55 51 51 54 51 50 50 53 52 50 46 43 43 42 43 54 63 73 72 68 72 75 80 81 80 76 74 79 85 84 83 85 83 80 74 66 65 67 68
41 42 37 42 45 43 40 44 43 34 31 43 60 56 47 41 37 28 19 29 57 57 40 33 23 16 19 38 28 31 32 41 51 60 56 58 66 67 65 66 61 62 62 58 54 50 51 51 55 59 54 46 48 50 47 48 51 53 48 44 40 39 37 40 45 42 53 67 64 63 66 68 69 69 71 68 68 65 65 69 72 70 67 60 53 50 55
42 39 41 39 40 40 37 43 44 37 27 23 25 58 59 45 40 30 22 25 37 60 50 42 31 25 19 21 37 33 28 41 50 52 51 53 66 78 78 69 67 65 59 53 48 44 40 44 50 50 47 45 46 44 43 39 39 45 53 55 47 40 38 35 36 34 30 41 76 74 70 65 65 70 75 80 79 77 74 73 74 76 78 74 66 55 48
48 28 21 38 51 48 35 27 32 44 41 32 29 40 67 68 48 36 33 29 30 63 62 51 47 32 25 23 25 28 40 43 41 36 44 53 62 56 68 71 69 68 67 61 56 48 41 38 50 53 48 37 36 41 45 42 43 45 49 48 46 42 40 39 39 40 39 34 35 40 45 50 56 58 57 60 72 77 75 76 80 84 88 85 76 68 59